OpenBCM V1.08-5-g2f4a (Linux)

Packet Radio Mailbox

IZ3LSV

[San Dona' di P. JN]

 Login: GUEST





  
I0OJJ  > KEPS     24.09.25 03:00l 313 Lines 14851 Bytes #136 (0) @ AMSAT
BID : ORB25267.1
Read: GUEST
Subj: 2Line Orbital Elements 25267.AMSAT
Path: IZ3LSV<IW0QNL<HB9ON<DK0WUE<PD0LPM<IR0AAB<I0OJJ
Sent: 250924/0025z @:I0OJJ.ITA.EU [Rome] obcm1.08-11-2-gbfe9
From: I0OJJ @ I0OJJ.ITA.EU (Gustavo)
To:   KEPS @ AMSAT
X-Info: This message was generated automatically


QST de W1STR

AMSAT Orbital Elements for Amateur Satellites in TLE Format
From Orbital Analysis Office
New England Sci-Tech STEM Education Center
Natick MA September 24, 2025
To all radio amateurs


These element sets describe the orbits of various satellites 
in use by the amateur radio community. For details see:
www.amsat.org/keplerian-elements-formats/

A daily update of element sets is available at:
www.amsat.org/tle/daily-bulletin.txt
or without bulletin text:
www.amsat.org/tle/dailytle.txt


AO-07
1 07530U 74089B   25265.90018528 -.00000032  00000-0  89797-4 0  9996
2 07530 101.9985 271.3010 0011908 281.9785 141.6084 12.53691759327029
UO-11
1 14781U 84021B   25266.13603904  .00003356  00000-0  35618-3 0  9996
2 14781  97.7672 230.4995 0007665   0.7439 359.3789 14.89703429217359
AO-27
1 22825U 93061C   25266.16179043  .00000252  00000-0  11307-3 0  9994
2 22825  98.7262 328.1915 0008846 157.0375 203.1204 14.30831886668811
FO-29
1 24278U 96046B   25266.18509651  .00000042  00000-0  75837-4 0  9994
2 24278  98.5569 146.1017 0350880  68.9944 294.8355 13.53254256437052
NOAA-15
1 25338U 98030A   25266.12717018  .00000315  00000-0  14680-3 0  9990
2 25338  98.5312 288.6989 0011175  54.2997 305.9223 14.27020325423203
GO-32
1 25397U 98043D   25266.20440741  .00000185  00000-0  10016-3 0  9998
2 25397  98.9828 247.5865 0000237 260.6575  99.4576 14.24341408413326
ISS
1 25544U 98067A   25266.24686782  .00027783  00000-0  48333-3 0  9995
2 25544  51.6338 181.0318 0004269   9.4814 350.6255 15.50560509530377
NO-44
1 26931U 01043C   25266.12699531  .00000443  00000-0  19661-3 0  9993
2 26931  67.0502 214.9330 0007090 274.8109  85.2183 14.31784101252211
SO-50
1 27607U 02058C   25266.17611718  .00004124  00000-0  51746-3 0  9997
2 27607  64.5525 234.5069 0066925 311.9376  47.6036 14.81926916224874
CO-55
1 27844U 03031E   25266.00385876  .00000639  00000-0  29678-3 0  9993
2 27844  98.6789 272.9347 0008574 238.1550 121.8795 14.24075137153642
CO-57
1 27848U 03031J   25266.00187679  .00000543  00000-0  25844-3 0  9993
2 27848  98.6820 272.8580 0008364 258.0282 101.9959 14.23398731153367
RS-22
1 27939U 03042A   25266.14727671  .00002264  00000-0  36357-3 0  9996
2 27939  98.3373  78.2277 0012129  40.0497  87.3797 14.72611365176233
CO-58
1 28895U 05043F   25266.14336658  .00003744  00000-0  61244-3 0  9999
2 28895  98.2651  51.9244 0013859 336.6151  23.4424 14.71376667 62466
CO-65
1 32785U 08021C   25266.19279492  .00012230  00000-0  85283-3 0  9997
2 32785  97.7980 238.2749 0008484 203.1080 156.9765 15.05521320944965
CO-66
1 32791U 08021J   25265.51643285  .00023894  00000-0  10678-2 0  9997
2 32791  97.7373 248.1340 0005122 134.2377 225.9279 15.21322234946436
RS-30
1 32953U 08025A   25266.31231535  .00000044  00000-0  24488-3 0  9998
2 32953  82.5063 161.4427 0018858 171.6814 188.4582 12.43168249786536
NOAA-19
1 33591U 09005A   25266.10721570  .00000199  00000-0  12963-3 0  9992
2 33591  98.9875 331.3565 0014686  67.8585 292.4144 14.13409683856755
SRMSAT
1 37841U 11058D   25266.07727620  .00000565  00000-0  16284-3 0  9990
2 37841  19.9711 236.1268 0011914 144.7487 287.1457 14.11467721720032
ZACUBE-1
1 39417U 13066B   25266.12337967  .00011548  00000-0  97135-3 0  9996
2 39417  97.7912 222.6960 0045133  60.1725 300.3972 14.97619971640700
Delfi-N3xt
1 39428U 13066N   25265.73326098  .00016887  00000-0  16536-2 0  9993
2 39428  97.8294 182.2598 0083459  15.4177 344.9554 14.89732004634720
GOMX-1
1 39430U 13066Q   25266.35283919  .00004431  00000-0  68655-3 0  9991
2 39430  97.6702 118.4948 0130647 213.2802 146.0140 14.68039247630746
LO-74
1 39440U 13066AA  25266.29193218  .00007147  00000-0  70815-3 0  9995
2 39440  97.8567 210.2078 0060547 189.4455 170.5630 14.90741719637182
AO-73
1 39444U 13066AE  25265.87147175  .00017922  00000-0  12819-2 0  9994
2 39444  97.7928 228.3381 0042154  33.8860 326.5045 15.03779227639409
DTUSAT-2
1 40030U 14033W   25266.19636900  .00016582  00000-0  10303-2 0  9994
2 40030  98.0668 243.2861 0011085  68.9701 291.2711 15.09697687612323
EO-80
1 40032U 14033Y   25266.21104613  .00016765  00000-0  10395-2 0  9994
2 40032  98.0548 242.8091 0008808  18.4988 341.6558 15.09791348612304
LILACSAT-2
1 40908U 15049K   25266.32476275  .00023996  00000-0  57434-3 0  9992
2 40908  97.5013 289.3781 0010372 132.7078 227.5044 15.41397465554505
IO-86
1 40931U 15052B   25151.18580175  .00001241  00000-0  78118-4 0  9996
2 40931   6.0006  24.0987 0012733 338.8432  21.1169 14.78805930523159
Horyu-4
1 41340U 16012D   25265.34333872  .00043221  00000-0  97758-3 0  9996
2 41340  30.9954 145.0822 0005286  59.8644 300.2526 15.41892931528942
Lapan A3
1 41603U 16040E   25266.37300260  .00007824  00000-0  26665-3 0  9996
2 41603  97.1418 266.9023 0008890 247.0470 112.9833 15.30597643513967
CAS-2T
1 41847U 16066G   25266.17253003  .00002656  00000-0  38571-3 0  9991
2 41847  98.4120 339.6927 0344490 218.8200 138.7786 14.43744642466256
CAS-4B
1 42759U 17034B   25265.81406225  .00357601  53711-4  12888-2 0  9992
2 42759  43.0000  46.5171 0024084 319.0810  40.8256 15.87395497459168
CAS-4A
1 42761U 17034D   25266.39586689  .00490210  10127-3  13576-2 0  9994
2 42761  43.0027  38.0776 0024241 329.8871  30.0610 15.92471474459293
TechnoSat
1 42829U 17042E   25266.16830389  .00006923  00000-0  52530-3 0  9996
2 42829  97.4005  69.9306 0016333 287.3731  72.5708 15.02411387446579
AO-91
1 43017U 17073E   25266.13667219  .00016172  00000-0  79607-3 0  9998
2 43017  97.5055 134.2657 0167998 165.9827 194.6150 15.06444985425096
S-Net D
1 43186U 18014G   25265.70458013  .00009572  00000-0  54750-3 0  9991
2 43186  97.5499 167.5355 0007558 212.8471 147.2291 15.12851656418266
S-Net B
1 43187U 18014H   25265.71138261  .00009590  00000-0  54876-3 0  9992
2 43187  97.5504 167.5191 0008354 208.2274 151.8505 15.12830785418266
S-Net A
1 43188U 18014J   25265.70459254  .00009723  00000-0  55592-3 0  9994
2 43188  97.5513 167.6767 0008235 208.9745 151.1030 15.12857394418266
S-Net C
1 43189U 18014K   25266.17704748  .00010279  00000-0  58764-3 0  9990
2 43189  97.5526 168.1764 0009970 200.5175 159.5657 15.12834853416884
Ten-Koh
1 43677U 18084G   25265.47197007  .00004080  00000-0  32410-3 0  9998
2 43677  98.0789  81.8873 0006330 265.2962  94.7538 15.01053687375972
PO-101
1 43678U 18084H   25266.35637609  .00004612  00000-0  38765-3 0  9994
2 43678  98.1067  86.5927 0008215 296.7044  63.3336 14.98798263376227
QO-100
1 43700U 18090A   25266.22601556  .00000000  00000-0  00000-0 0  9990
2 43700   0.0235 173.6317 0001338  39.0782 256.7679  1.00270708 25002
MinXSS-2
1 43758U 18099A   25266.14544481  .00039940  00000-0  14057-2 0  9990
2 43758  97.4912 332.6969 0012090 140.8351 219.3766 15.29147281373088
AO-95
1 43770U 18099N   25266.11178084  .00021063  00000-0  10027-2 0  9993
2 43770  97.4805 323.0963 0010025 196.6744 163.4163 15.19132091372566
SNUSat 2
1 43782U 18099AA  25266.13152368  .00015743  00000-0  81743-3 0  9997
2 43782  97.4487 318.9825 0012860 142.7171 217.4957 15.16126081372481
SnugLite
1 43784U 18099AC  25266.11847724  .00020355  00000-0  96014-3 0  9996
2 43784  97.4297 318.7683 0004685 133.9343 226.2279 15.19491109372654
ITASat 1
1 43786U 18099AE  25266.12817512  .00013242  00000-0  72570-3 0  9999
2 43786  97.4456 318.1649 0013691 194.7270 165.3565 15.14241566372421
EAGLET 1
1 43790U 18099AJ  25266.08618764  .00009196  00000-0  56983-3 0  9990
2 43790  97.4656 317.7045 0011916 179.7761 180.3476 15.09921737371986
ESEO
1 43792U 18099AL  25266.07217523  .00004380  00000-0  32936-3 0  9991
2 43792  97.4369 309.5098 0012784 160.5282 199.6435 15.02990599371664
JO-97
1 43803U 18099AX  25266.11153222  .00026376  00000-0  11123-2 0  9997
2 43803  97.4548 324.3458 0008475 131.1887 229.0082 15.23254916372822
Suomi 100
1 43804U 18099AY  25266.11071223  .00022835  00000-0  10467-2 0  9994
2 43804  97.4614 323.3127 0013121 136.4965 223.7308 15.20391506372723
ISAT
1 43879U 18111D   25265.73290687  .00041698  00000-0  12526-2 0  9991
2 43879  97.5878 182.6981 0008220 163.8230 196.3277 15.34272260369798
UWE-4
1 43880U 18111E   25265.75907883  .00035435  00000-0  12484-2 0  9993
2 43880  97.5822 180.3940 0010431 185.9048 174.2070 15.29159450369681
Sparrow
1 43881U 18111F   25265.75180909  .00045002  00000-0  12863-2 0  9998
2 43881  97.6044 186.0380 0004723 192.3332 167.7796 15.35842771369904
Prox-1
1 44339U 19036A   25265.79969987  .00022518  00000-0  27244-2 0  9995
2 44339  23.9963  89.5799 0006241 191.3520 168.6837 14.82163016333637
Taurus 1
1 44530U 19059C   25266.35253582  .00016926  00000-0  30097-2 0  9999
2 44530  98.6187  50.9246 0009351  70.7356 289.4858 14.67170518319444
Duchifat 3
1 44854U 19089C   25265.72423541  .00138525  00000-0  17424-2 0  9994
2 44854  36.9387  41.8146 0006085  56.6556 303.4787 15.58273710319351
TO-108
1 44881U 19093C   25266.29917611  .00001835  00000-0  21685-3 0  9996
2 44881  97.7844 339.7077 0012470 241.6576 118.3382 14.85811121311774
FloripaSat 1
1 44885U 19093G   25266.35220799  .00012334  00000-0  10045-2 0  9994
2 44885  97.8155 354.2325 0009113 212.0250 148.0420 14.99621996312591
RS-44
1 44909U 19096E   25266.17645267  .00000051  00000-0  15263-3 0  9996
2 44909  82.5242 157.1420 0218374  48.8215 313.1494 12.79743764268195
UPMSat 2
1 46276U 20061E   25266.14515165  .00451366  83867-4  11659-2 0  9998
2 46276  97.2290 345.4765 0003546 229.4361 130.6607 15.95130952282112
SALSAT
1 46495U 20068K   25265.51289106  .00012987  00000-0  53413-3 0  9992
2 46495  97.8712 248.5568 0012029 148.4908 211.7051 15.24234061274503
